Overview Statistics Trail Chart Weather Telemetry Raw packets
 

This is the latest recevied weather packets stored in our database for station/object KK4MOR. If no packets are shown the sender has not sent any weather packets the latest 10 day(s).

<< 6 7 8 9 10 11 12 >>
Time Temp. Humidity Pressure Rain* Wind** Luminosity Snow
1788444052 28.33° C 83% 1014.6 hPa 0 mm - - -
1788443161 27.22° C 90% 1014.6 hPa 0 mm - - -
1788442250 25.56° C 93% 1014.7 hPa 0 mm - - -
1788441342 25° C 96% 1014.8 hPa 0 mm - - -
1788440436 23.89° C 98% 1014.9 hPa 0 mm - - -
1788439554 23.33° C 98% 1014.9 hPa 0 mm - - -
1788438634 22.22° C 98% 1015 hPa 0 mm - - -
1788437743 21.67° C 97% 1014.8 hPa 0 mm - - -
1788436832 21.67° C 97% 1014.8 hPa 0 mm - - -
1788435932 21.67° C 97% 1014.7 hPa 0 mm - - -
1788435031 21.67° C 97% 1014.6 hPa 0 mm - - -
1788434128 21.67° C 97% 1014.5 hPa 0 mm - - -
1788433253 21.67° C 97% 1014.4 hPa 0 mm - - -
1788432327 21.67° C 97% 1014.3 hPa 0 mm - - -
1788431423 21.67° C 97% 1014.2 hPa 0 mm - - -
1788430530 21.67° C 97% 1014.1 hPa 0 mm - - -
1788429626 21.67° C 97% 1014 hPa 0 mm - - -
1788428719 21.67° C 97% 1014 hPa 0 mm - - -
1788427818 22.22° C 96% 1014 hPa 0 mm - - -
1788426918 22.22° C 96% 1014 hPa 0 mm - - -
1788426017 22.22° C 96% 1014 hPa 0 mm - - -
1788425117 22.22° C 96% 1014.1 hPa 0 mm - - -
1788424215 22.22° C 96% 1014 hPa 0 mm - - -
1788423314 22.22° C 96% 1014 hPa 0 mm - - -
1788422414 22.22° C 96% 1013.9 hPa 0 mm - - -

* Rain latest hour (hover to see other rain measurements)
** Current wind speed in m/s (hover to see current wind gust speed)